Location: *
(44.6333°N, 11.2000°E)
Time: 21:17:29
(UTC+00:00)

Daily predictions for brighter satellites

Satellite Brightness Start Highest point End
(mag) Time Altitude Azimuth Time Altitude Azimuth Time Altitude Azimuth
Cosmos 1624 Rocket 4.4 19:30:22 10° SSW 19:35:34 71° WNW 19:40:47 10° NNE
Lacrosse 5 2.1 19:32:08 10° NW 19:37:12 66° SW 19:42:15 10° SE
NOSS 2-1 (C) 4.2 19:36:15 10° NW 19:40:54 88° SW 19:47:32 10° SE
Meteor 1-24 Rocket 3.7 19:39:16 10° S 19:44:35 89° ESE 19:50:06 10° N
Cosmos 1271 Rocket 2.8 19:45:11 10° N 19:49:09 73° ENE 19:53:04 10° SSE
H-2A R/B 4.1 19:46:04 10° SSW 19:49:23 29° W 19:52:47 10° NW
Cosmos 2082 Rocket 3.8 19:46:23 10° SE 19:49:27 15° E 19:52:31 10° ENE
NOSS 2-1 (D) 4.3 19:46:40 10° NW 19:51:22 75° SW 19:58:05 10° SSE
USA 276 3.9 19:49:56 10° WNW 19:52:42 32° N 19:55:30 10° NE
H-2A R/B 2.4 19:51:13 10° N 19:55:40 74° WNW 20:00:08 10° SSW
USA 245 3.9 19:52:52 10° SE 19:56:47 39° ENE 19:59:58 10° N
Cosmos 1536 Rocket 3.9 19:52:42 10° SSE 19:56:50 47° E 20:01:02 10° NNE
Cosmos 1455 2.2 19:54:41 10° N 19:58:31 88° ENE 20:02:20 10° S
CARTOSAT-1 3.7 19:56:58 10° SSE 20:01:13 63° ENE 20:05:29 10° N
ARIANE 5 R/B 4.5 19:58:38 10° ESE 20:01:38 18° ENE 20:04:38 10° NNE
Cosmos 1975 Rocket 4.5 19:58:48 10° SSW 20:02:59 41° WNW 20:07:11 10° N
SL-24 R/B 4.3 19:59:23 10° SSE 20:03:44 85° ENE 20:08:43 10° NNW
Cosmos 1741 Rocket 4.3 19:59:54 10° NNW 20:05:10 59° ENE 20:09:58 12° SE
ATLAS 5 CENTAUR R/B 3.7 19:54:37 10° NW 20:06:31 53° WSW 20:10:19 10° SSE
Tiangong 3.4 20:06:08 10° WSW 20:07:52 14° SSW 20:09:36 10° S
SPOT 3 Rocket 3.6 20:05:32 10° SSE 20:10:41 70° ENE 20:15:54 10° N
Ariane Rocket 3.2 20:07:11 10° S 20:12:17 75° WSW 20:17:24 10° NNW
Cosmos 2074 Rocket 4.1 20:07:30 10° N 20:13:45 65° E 20:19:38 11° SSE
Cosmos 1544 Rocket 4.3 20:16:11 10° NNW 20:20:25 52° W 20:24:37 10° S
GEOS 3 Rocket 4.3 20:17:17 10° SSE 20:22:04 45° WSW 20:26:59 10° NW
Lacrosse 5 rocket 3.8 20:20:54 10° WSW 20:22:07 11° WSW 20:23:20 10° SW
Cosmos 1656 3.9 20:17:49 10° NNW 20:23:16 69° WSW 20:28:15 13° SSE
Nadezhda 1 Rocket 4.2 20:18:41 10° SSE 20:24:25 50° E 20:30:14 10° NNE
ATLAS 2AS CENTAUR R/B 3.6 20:23:21 10° NW 20:29:47 40° WSW 20:35:51 10° S
Cosmos 1850 Rocket 4.0 20:26:56 10° NNW 20:32:09 80° WSW 20:36:20 16° SSE
SL-16 R/B 4.4 20:31:03 10° N 20:34:02 14° NE 20:37:00 10° ENE
Cosmos 1980 Rocket 3.0 20:29:41 10° NNW 20:35:02 39° NE 20:39:07 16° ESE
Cosmos 1697 Rocket 2.7 20:29:48 10° NNW 20:35:26 73° ENE 20:39:32 19° SE
Cosmos 1331 Rocket 4.0 20:32:11 10° SSW 20:37:29 78° ESE 20:42:47 10° NNE
Cosmos 2344 4.5 20:28:54 10° NW 20:37:45 67° NE 20:48:13 15° SE
SL-8 R/B 3.7 20:33:10 10° WNW 20:37:58 75° SSW 20:41:22 19° ESE
Cosmos 2369 4.3 20:33:01 10° NNW 20:38:33 47° ENE 20:42:35 18° SE
Spot 2 Rocket 3.5 20:38:46 17° SSE 20:42:46 88° ENE 20:47:54 10° NNW
COSMOS 2406 3.3 20:37:12 10° S 20:42:48 57° ESE 20:48:27 10° NNE
Cosmos 2154 Rocket 4.0 20:39:08 10° N 20:45:22 79° E 20:50:11 18° SSE
X-37B 0.2 20:43:16 10° W 20:46:03 67° SSW 20:47:01 35° ESE
ATLAS 5 CENTAUR R/B 3.0 20:48:00 16° E 20:48:00 16° E 20:49:48 10° ENE
CZ-2C R/B 3.7 20:44:08 10° NNE 20:48:40 65° ESE 20:51:58 18° S
SPOT 5 2.7 20:49:45 19° S 20:52:48 73° WSW 20:57:08 10° NNW
Cosmos 1703 4.2 20:51:50 10° SSW 20:55:32 46° WNW 20:59:16 10° N
Cosmos 2084 Rocket 3.3 20:54:08 10° NW 20:58:03 72° NE 21:00:03 28° SE
RESURS DK-1 3.4 20:55:01 10° NW 20:58:52 38° WSW 21:01:19 19° SSW
Cosmos 1833 Rocket 3.1 20:53:25 10° SW 20:58:59 66° WNW 21:04:37 10° NNE
Terra 1.8 20:56:27 23° SSE 20:59:27 87° ENE 21:04:14 10° NNW
CZ-4B R/B 4.3 21:01:01 10° NW 21:02:10 12° WNW 21:03:19 10° W
Helios 1A Rocket 3.3 21:01:06 22° S 21:03:37 58° WSW 21:07:40 10° NNW
ASTEX 1 4.1 20:59:32 10° NNE 21:04:14 39° E 21:06:20 26° SE
ERS-1 Rocket 3.2 21:02:33 20° S 21:06:01 66° WSW 21:11:03 10° NNW
Cosmos 1892 Rocket 3.6 21:04:14 27° SSE 21:06:29 62° E 21:10:49 10° NNE
Resurs 01 Rocket 4.2 21:04:40 10° WSW 21:06:59 14° W 21:09:18 10° WNW
Cosmos 1302 Rocket 3.9 21:03:52 17° S 21:07:55 70° ESE 21:13:05 10° NNE
Cosmos 2322 Rocket 4.3 21:06:04 10° N 21:09:54 18° NE 21:13:43 10° E
Cosmos 2228 3.9 21:08:26 10° NNW 21:12:28 43° W 21:15:16 18° SSW
Cosmos 2058 Rocket 3.4 21:09:12 10° N 21:13:33 53° ENE 21:15:19 32° SE
Cosmos 1825 3.4 21:15:03 25° E 21:15:22 25° E 21:18:30 10° NNE
Cosmos 1408 2.5 21:16:15 45° SSE 21:16:59 59° E 21:20:23 10° NNE
Meteor 1-11 4.2 21:15:39 25° S 21:19:00 68° E 21:24:33 10° NNE
Lacrosse 5 4.2 21:17:49 10° W 21:19:17 11° WSW 21:20:45 10° SW
Cosmos 2278 4.2 21:15:44 10° NNW 21:21:20 53° ENE 21:24:23 26° SE
Cosmos 2366 rocket 4.4 21:17:53 10° N 21:24:05 53° ENE 21:27:19 28° SE
Cosmos 968 Rocket 3.4 21:18:52 10° NNW 21:24:07 90° ENE 21:26:36 32° SSE
Cosmos 1328 4.5 21:22:05 19° SSW 21:24:46 52° WNW 21:28:42 10° N
Cosmos 2218 Rocket 4.3 21:21:17 10° N 21:27:36 56° ENE 21:30:50 29° SE
USA 276 3.8 21:26:11 10° WNW 21:28:57 31° N 21:31:01 15° ENE
Cosmos 2082 Rocket 2.2 21:27:22 12° SSW 21:32:45 83° WNW 21:38:29 10° NNE
BREEZE-M DEB (TANK) 4.4 21:15:30 10° SW 21:33:14 76° SSE 21:37:44 10° ENE
SJ 16-02 3.5 21:30:15 10° NNE 21:33:16 18° ENE 21:35:23 13° E
Cosmos 1867 3.5 21:28:32 10° NW 21:34:02 89° NE 21:36:30 34° SE
USA 267 3.3 21:30:31 10° NE 21:36:57 58° SE 21:43:22 10° SSW
ARIANE 5 R/B 3.2 21:35:43 29° SSW 21:37:42 51° W 21:42:02 10° NNW
GP-B 3.0 21:37:36 10° N 21:42:04 86° E 21:43:35 41° S
Cosmos 1959 Rocket 4.5 21:36:54 10° N 21:43:00 69° E 21:45:49 33° SSE
Cosmos 2341 Rocket 4.0 21:37:22 10° N 21:43:42 81° W 21:47:01 30° S
Cosmos 2360 Rocket 4.1 21:41:44 10° N 21:46:01 21° NE 21:50:16 10° E
SAR-Lupe-4 3.4 21:42:29 10° NNE 21:46:05 87° WNW 21:46:46 57° SSW
Cosmos 1606 4.5 21:49:56 10° NNE 21:52:50 20° ENE 21:53:24 19° E
Cosmos 864 Rocket 4.4 21:46:49 10° N 21:53:02 83° E 21:55:52 35° SSE
Okean 1-7 Rocket 3.5 21:58:40 47° S 21:59:56 90° SW 22:04:28 10° N
Cosmos 1892 3.6 22:02:06 31° WSW 22:03:20 42° WNW 22:06:57 10° N
Cosmos 1758 Rocket 3.9 22:08:36 45° ESE 22:09:05 47° E 22:13:18 10° NNE
Cosmos 2181 Rocket 4.1 22:07:21 29° SSW 22:10:41 72° W 22:16:56 10° N
USA 234 3.8 22:04:42 11° ESE 22:10:47 58° NNE 22:17:12 10° NW
Cosmos 1633 2.7 22:12:09 57° ENE 22:12:09 57° ENE 22:15:18 10° NNE
Cosmos 1992 Rocket 4.3 22:15:18 28° SW 22:18:02 65° WNW 22:23:16 10° NNE
Cosmos 1980 Rocket 3.2 22:13:52 10° NW 22:18:56 34° WSW 22:20:52 27° SW
Cosmos 1821 Rocket 4.1 22:12:52 10° N 22:19:05 67° E 22:21:23 39° SSE
SL-16 R/B 2.3 22:13:36 10° NNW 22:19:16 68° ENE 22:21:23 39° SE
Cosmos 1486 Rocket 4.1 22:14:26 10° NNW 22:19:38 68° WSW 22:21:05 46° S
SL-4 R/B 4.0 22:23:23 15° ENE 22:23:23 15° ENE 22:24:09 10° ENE
Cosmos 1812 Rocket 3.5 22:16:56 10° N 22:21:24 78° E 22:22:08 60° SSE
Cosmos 2219 Rocket 4.4 22:19:04 10° N 22:23:03 19° NE 22:27:02 10° E
Cosmos-2242 2.8 22:26:29 10° N 22:30:44 77° E 22:31:12 67° SE
ATLAS 5 CENTAUR R/B 2.3 22:29:23 24° WSW 22:31:17 44° NW 22:35:18 10° NNE
Cosmos 1602 Rocket 3.6 22:32:11 56° SW 22:32:58 70° W 22:37:17 10° N
Cosmos 1869 4.2 22:31:09 10° NNW 22:34:45 37° W 22:35:09 36° WSW
Terra 4.3 22:36:48 10° W 22:37:50 11° W 22:38:54 10° WNW
ERS-2 3.4 22:35:05 10° NNE 22:37:40 29° ENE 22:37:40 29° ENE
Nadezhda 3 Rocket 3.9 22:36:22 43° S 22:38:29 77° E 22:44:39 10° N
ALOS 2 2.5 22:39:49 66° SSE 22:40:25 84° ENE 22:44:50 10° NNW
FALCON 9 DEB 4.5 22:40:24 10° WNW 22:42:17 31° WNW 22:42:17 31° WNW
Cosmos 1354 Rocket 3.9 22:42:35 10° NNW 22:47:53 79° WSW 22:49:06 54° S
ADEOS Rocket 3.5 22:45:43 38° SSE 22:48:57 88° WSW 22:56:45 10° NNW
BREEZE-M DEB (TANK) 4.3 22:45:55 10° WNW 22:49:36 71° NNE 23:05:24 10° ESE
Cosmos 1825 4.1 22:49:40 20° W 22:50:40 22° WNW 22:53:39 10° NNW
Cosmos 2322 Rocket 2.1 22:49:02 10° NNW 22:54:45 90° WSW 22:56:24 49° SSE
Cosmos 1503 Rocket 4.3 22:52:28 10° NNW 22:57:37 53° WSW 22:58:35 46° SW
Cosmos 1953 Rocket 3.7 22:58:43 57° ESE 22:59:03 59° E 23:03:24 10° NNE
PSLV R/B 4.1 22:57:55 10° NNE 23:02:32 49° E 23:03:01 47° ESE
USA 276 4.4 23:01:53 10° WNW 23:02:49 18° WNW 23:02:49 18° WNW
Cosmos 1777 Rocket 3.9 23:00:25 10° NNW 23:05:44 84° WSW 23:06:53 56° S
Cosmos 1825 Rocket 3.5 23:08:18 63° WSW 23:08:44 69° W 23:13:05 10° N
Cosmos 2333 Rocket 2.9 23:04:24 10° NNW 23:10:01 50° ENE 23:12:51 27° ESE
CENTAUR R/B 3.8 23:09:34 21° ESE 23:10:13 21° ESE 23:14:55 10° ENE
Gbstr 26 Del rocket 2.9 23:11:09 70° SSW 23:11:37 82° SSE 23:16:46 10° ENE
SJ 16-02 1.6 23:07:50 10° NNW 23:12:10 53° WSW 23:12:19 53° WSW
COSMOS 2487 4.5 23:14:00 18° ENE 23:14:00 18° ENE 23:15:12 10° NE
Cosmos 1340 Rocket 2.7 23:13:04 86° NE 23:13:04 86° NE 23:16:59 10° N
STPSAT 2 (USA 217) 4.5 23:09:10 10° NNW 23:13:48 87° WSW 23:14:22 69° SSE
USA 267 4.0 23:13:36 10° NE 23:19:56 53° NNW 23:26:14 10° WSW
Celestis-02/Orion 38 4.4 23:19:53 52° SSE 23:21:11 90° N 23:26:18 10° NNW
Meteor 2-3 Rocket 4.3 23:20:57 37° SE 23:22:22 44° E 23:27:38 10° NNE
Cosmos 2058 3.5 23:26:08 43° W 23:26:35 45° WNW 23:30:38 10° N
Cosmos 2221 2.4 23:23:30 10° N 23:27:53 77° E 23:28:17 69° SE
Cosmos 1606 4.0 23:25:04 10° NNW 23:28:16 30° W 23:28:16 30° W
Cosmos 1842 Rocket 3.8 23:26:07 10° N 23:30:35 61° E 23:31:14 54° ESE
Cosmos 2360 Rocket 2.1 23:24:57 10° NNW 23:30:37 73° WSW 23:32:00 52° S
Cosmos 1934 Rocket 4.0 23:25:09 10° NNW 23:31:13 70° W 23:33:06 45° SSW
Nimbus 7 Rocket 4.4 23:28:39 10° NNE 23:34:37 88° WNW 23:36:36 45° SSW
Cosmos 2333 4.3 23:29:22 10° NNW 23:35:11 78° ENE 23:37:21 40° SE
Resurs 1-4 Rocket 4.2 23:32:53 10° NE 23:36:01 16° E 23:38:01 13° ESE
Cosmos 1782 3.7 23:32:59 10° N 23:36:43 38° ENE 23:37:13 36° E
Cosmos 1833 4.2 23:39:57 44° SW 23:41:44 75° WNW 23:47:22 10° NNE
Cosmos 44 3.2 23:41:21 56° WSW 23:42:14 74° NW 23:46:43 10° NNE
CZ-2D R/B 4.0 23:41:17 10° NE 23:44:42 17° E 23:46:39 14° ESE
Cosmos 1727 Rocket 4.2 23:51:12 39° SSE 23:53:32 64° E 23:59:45 10° NNE
Cosmos 2237 Rocket 4.2 23:50:28 10° N 23:55:03 24° NE 23:59:36 10° ESE
